Regional Weather Roundup
Issued by NWS

Home | Current Version | Previous Version | Text Only | Print | Product List | Glossary Off
Versions: 1 2 3 4 5 6 7 8 9 10 11 12 13 14 15 16 17 18 19 20 21 22 23 24 25 26 27 28 29 30 31 32 33 34 35 36 37 38 39 40 41 42 43 44 45 46 47 48 49 50

000
ASUS43 KMPX 260410
RWRMN
WEATHER ROUNDUP FOR MINNESOTA
NATIONAL WEATHER SERVICE TWIN CITIES/CHANHASSEN MN
1100 PM CDT FRI JUL 25 2014


NOTE: "FAIR" INDICATES FEW OR NO CLOUDS BELOW 12,000 FEET WITH NO
SIGNIFICANT WEATHER AND/OR OBSTRUCTIONS TO VISIBILITY. N/A MEANS
CURRENT SKY AND/OR WEATHER CONDITIONS ARE NOT AVAILABLE.

MNZ060>063-068>070-260500-
   Twin Cities Metro

CITY           SKY/WX    TMP DP  RH WIND       PRES   REMARKS
TWIN CITIES    CLOUDY    78  69  73 SW5       29.80R
ST PAUL        CLOUDY    75  70  84 S3        29.79R
CRYSTAL        CLOUDY    78  68  71 S8        29.78R
BLAINE         CLOUDY    79  72  78 S6        29.79S
LAKEVILLE      CLOUDY    72  70  94 CALM      29.81R
EDEN PRAIRIE   CLOUDY    76  69  79 SW6       29.79R
SOUTH ST PAUL  PTCLDY    76  69  78 CALM      29.79R
LAKE ELMO      CLOUDY    72  70  94 CALM      29.82R
$$
MNZ001>005-007-008-013>017-022>024-027-028-260500-
   Northwest Minnesota

CITY           SKY/WX    TMP DP  RH WIND       PRES   REMARKS
BEMIDJI        MOCLDY    67  60  76 W8        29.80R
HALLOCK        CLEAR     64  57  77 SW6       29.75S
ROSEAU         CLEAR     64  55  72 SW5       29.75S
WARROAD        CLEAR     66  57  72 SW7       29.74S
THIEF RVR FALL CLEAR     64  57  77 W8        29.79S
CROOKSTON      CLEAR     63  57  82 W5        29.80R
FOSSTON        CLEAR     57  52  82 CALM      29.82R
DETROIT LAKES  CLEAR     66  57  72 NW6       29.84R
MOORHEAD       CLEAR     68  61  77 CALM      29.82R
PARK RAPIDS    PTCLDY    69  67  93 W10       29.81R
$$
MNZ006-009>011-018-025>026-260500-
   North Central Minnesota

CITY           SKY/WX    TMP DP  RH WIND       PRES   REMARKS
BAUDETTE       CLEAR     66  56  70 CALM      29.75R
FLAG ISLAND    CLEAR     70  55  60 W8        29.71R
INTL FALLS     LGT RAIN  68  65  90 VRB5      29.72S
WASKISH        MOCLDY    72  61  68 W6        29.76R
BIG FORK       CLEAR     64  63  94 S6        29.76S
LONGVILLE      PTCLDY    72  70  94 W5        29.78R
GRAND RAPIDS   MOCLDY    70  64  83 S3        29.77S
CRANE LAKE     CLEAR     61  59  94 CALM      29.76S FOG
ORR            PTCLDY    64  63  94 CALM      29.74R
COOK           PTCLDY    64  63  94 CALM      29.78R
$$
MNZ012-019>021-037-260500-
   Northeast Minnesota

CITY           SKY/WX    TMP DP  RH WIND       PRES   REMARKS
DULUTH         CLOUDY    69  65  86 S10       29.78F
ELY            MOCLDY    66  63  88 SW6       29.78R
HIBBING        CLOUDY    68  65  90 SE3       29.77S
EVELETH        CLOUDY    68  64  88 SW3       29.79S
DULUTH HARBOR  CLOUDY    64  63  94 CALM      29.77S
TWO HARBORS    CLOUDY    66  61  82 SW5       29.76S
SILVER BAY     PTCLDY    64  64 100 CALM      29.76S
GRAND MARAIS     N/A     52  52 100 CALM      29.76S
G MARAIS ARPRT CLOUDY    63  59  88 CALM      29.80S FOG
$$
MNZ029>031-032-039>041-046>048-054>057-064-260500-
   West Central Minnesota

CITY           SKY/WX    TMP DP  RH WIND       PRES   REMARKS
FERGUS FALLS   CLEAR     68  57  68 N6        29.83R
WHEATON        PTCLDY    66  64  94 SW5       29.84R
MORRIS         CLEAR     66  66 100 W7        29.82R FOG
ALEXANDRIA     CLEAR     69  66  90 W5        29.84R
ELBOW LAKE     FAIR      67  66  97 W5        29.83R
WADENA         CLEAR     66  64  94 W6        29.81R
GLENWOOD       CLEAR     68  66  94 W7        29.84R
APPLETON       CLEAR     70  64  83 NW5       29.82R
BENSON         CLEAR     66  66 100 CALM      29.82R FOG
ORTONVILLE     MOCLDY    72  66  83 CALM      29.83R
MADISON        CLEAR     72  70  94 CALM      29.83R
WILLMAR        FAIR      73  70  88 W5        29.83R
$$
MNZ033>034-036-042>043-049>051-058-059-260500-
   Central Minnesota

CITY           SKY/WX    TMP DP  RH WIND       PRES   REMARKS
ST CLOUD       CLOUDY    75  71  87 CALM      29.79R
SAUK CENTRE    FAIR      68  67  98 CALM      29.82R
PAYNESVILLE    RAIN      67  67  99 CALM      29.81R
AITKIN         PTCLDY    72  64  78 CALM      29.78R
PINE RIVER     PTCLDY    72  66  83 CALM      29.83R
BRAINERD       PTCLDY    69  67  93 W3        29.80R
STAPLES        PTCLDY    66  64  94 W5        29.80R
LONG PRAIRIE   FOG       64  64 100 CALM      29.82R VSB 1/2
LITTLE FALLS     N/A     68  64  88 CALM      29.80R FOG
LITCHFIELD     CLOUDY    75  73  94 CALM      29.81R
BUFFALO        CLOUDY    75  68  79 S3        29.81R
MAPLE LAKE     CLOUDY    76  72  87 CALM      29.81R
$$
MNZ037-044-045-052-053-260500-
   East Central Minnesota

CITY           SKY/WX    TMP DP  RH WIND       PRES   REMARKS
PRINCETON      CLOUDY    75  72  88 CALM      29.80R
MORA           MOCLDY    70  66  88 CALM      29.81R
CAMBRIDGE      CLEAR     75  64  69 CALM      29.78R
RUSH CITY      CLOUDY    71  68  89 S3        29.80R
MOOSE LAKE     CLOUDY    70  66  88 CALM      29.77S
HINCKLEY       CLOUDY    72  70  94 CALM      29.79S
CLOQUET        CLOUDY    70  66  88 S8        29.79S
MCGREGOR       MOCLDY    70  68  94 CALM      29.79R
$$
MNZ071>073-080-081-089-090-097-098-260500-
   Southwest Minnesota

CITY           SKY/WX    TMP DP  RH WIND       PRES   REMARKS
MONTEVIDEO     CLEAR     72  66  83 NW3       29.83R
GRANITE FALLS  PTCLDY    73  70  91 W3        29.83R
CANBY          CLEAR     69  67  94 W3        29.85R
MARSHALL       MOCLDY    73  70  88 NW6       29.82R
REDWOOD FALLS  CLOUDY    77  72  84 NW7       29.80R
OLIVIA         CLOUDY    73  70  88 NW5       29.81R
PIPESTONE      CLOUDY    75  72  88 CALM      29.86R
WINDOM         MOCLDY    73  70  88 CALM      29.84R
WORTHINGTON    CLEAR     73  70  88 SW6       29.86R
JACKSON        MOCLDY    72  68  88 S5        29.84S
TRACY          MOCLDY    74  71  91 NW5       29.84R
SLAYTON        MOCLDY    73  71  93 CALM      29.86R
$$
MNZ065>067-074>077-082>085-091>093-260500-
   South Central Minnesota

CITY           SKY/WX    TMP DP  RH WIND       PRES   REMARKS
MANKATO        MOCLDY    73  66  78 S5        29.81R
NEW ULM        PTCLDY    73  72  94 S5        29.80S
ST JAMES       PTCLDY    73  70  88 S3        29.83R
FAIRMONT       CLOUDY    72  63  73 S5        29.82S
GLENCOE        CLOUDY    76  68  77 S5        29.80R
FARIBAULT      CLOUDY    77  66  69 S3        29.81S
OWATONNA       PTCLDY    73  66  78 CALM      29.82R
WASECA         PTCLDY    72  64  78 S5        29.83S
ALBERT LEA     CLOUDY    73  70  88 S6        29.83S
$$
MNZ078>079-086>088-094>096-260500-
   Southeast Minnesota

CITY           SKY/WX    TMP DP  RH WIND       PRES   REMARKS
ROCHESTER      CLOUDY    70  67  90 S8        29.85R FOG
RED WING       DRIZZLE   72  70  94 SE8       29.80R
STANTON        CLOUDY    74  69  84 CALM      29.80R
DODGE CENTER   RAIN      72  70  94 SW5       29.85R
WINONA         CLOUDY    72  64  78 SE3       29.83S
AUSTIN         LGT RAIN  72  70  94 S3        29.84R
PRESTON        CLOUDY    68  68 100 SE6       29.86R FOG
$$
ABBREVIATIONS USED IN REMARKS
   TC - TEMPERATURES IN CELSIUS
  WCI - WIND CHILL INDEX
   HX - HEAT INDEX
  VSB - VISIBILITY
$$


USA.gov is the U.S. government's official web portal to all federal, state and local government web resources and services.